Home   Weather   Norwich   Past weeks

Flag for United Kingdom Past Weather in Norwich, England, United Kingdom — Yesterday and Last 2 Weeks

Now
46 °F

Light rain. Broken clouds.


Feels Like: 41 °F
Forecast: 36 / 51 °F
Wind: 13 mph from West

Location: Norwich Weather Centre

Current Time: Apr 27, 2017 at 2:20:36 pm

Latest Report: Apr 27, 2017 at 1:50 pm


Visibility: N/A

Pressure: 30.01 "Hg

Humidity: 82%

Dew Point: 41 °F

Location of NorwichLocation

Past Weather in Norwich — Graph

°F

Norwich Temperature Yesterday

Maximum temperature yesterday: 48 °F (at 12:20 pm)
Minimum temperature yesterday: 34 °F (at 10:50 pm)
Average temperature yesterday: 42 °F

High & Low Weather Summary for the Past Weeks

 TemperatureHumidityPressure
High57 °F (Apr 20, 3:50 pm)100% (Apr 16, 11:50 pm)30.66 "Hg (Apr 16, 11:50 pm)
Low32 °F (Apr 19, 5:20 am)41% (Apr 23, 11:50 am)29.80 "Hg (Apr 24, 7:20 pm)
Average46 °F73%30.18 "Hg
* Reported Apr 12 12:20 pm — Apr 27 12:50 pm, Norwich, Weather by CustomWeather, © 2017

Note: Actual official high and low records may vary slightly from our data, if they occured in-between our weather recording intervals... More about our weather records

Advertising

Norwich Weather History for the Previous 24 Hours

Scroll right to see more
 ConditionsComfort  
Time TempWeatherWind HumidityBarometerVisibility
12:50 pm
Thu, Apr 27
48 °FSprinkles. Broken clouds.14 mph71%30.04 "HgN/A
12:20 pm46 °FScattered clouds.15 mph71%30.04 "HgN/A
11:50 am46 °FScattered clouds.13 mph71%30.04 "HgN/A
11:20 am46 °FSprinkles. Scattered clouds.13 mph66%30.04 "HgN/A
10:50 am46 °FLight rain. Passing clouds.10 mph62%30.07 "HgN/A
10:20 am45 °FPassing clouds.10 mph66%30.07 "HgN/A
9:50 am45 °FSunny.10 mph71%30.07 "Hg10 mi
9:20 am43 °FPassing clouds.8 mph76%30.07 "HgN/A
8:50 am43 °FSunny.9 mph76%30.07 "Hg10 mi
8:20 am41 °FSunny.8 mph81%30.07 "Hg10 mi
7:50 am39 °FSunny.8 mph87%30.07 "Hg10 mi
7:20 am37 °FSunny.6 mph93%30.07 "Hg10 mi
6:50 am36 °FSunny.7 mph93%30.07 "Hg10 mi
6:20 am34 °FPassing clouds.7 mph93%30.07 "HgN/A
5:50 am36 °FSunny.6 mph93%30.07 "Hg10 mi
5:20 am36 °FChilly.8 mph93%30.07 "HgN/A
4:50 am36 °FChilly.5 mph93%30.07 "HgN/A
4:20 am36 °FPassing clouds.6 mph93%30.07 "HgN/A
3:50 am36 °FPartly cloudy.6 mph93%30.07 "HgN/A
3:20 am36 °FPartly cloudy.7 mph93%30.09 "HgN/A
2:50 am34 °FPassing clouds.7 mph93%30.09 "HgN/A
2:20 am34 °FChilly.7 mph93%30.09 "HgN/A
1:50 am34 °FPassing clouds.7 mph87%30.09 "HgN/A
1:20 am37 °FRain. Partly cloudy.3 mph87%30.09 "Hg6 mi
12:50 am34 °FPassing clouds.6 mph93%30.09 "HgN/A
12:20 am36 °FPassing clouds.6 mph87%30.09 "HgN/A
11:50 pm
Wed, Apr 26
36 °FChilly.5 mph87%30.09 "HgN/A
11:20 pm36 °FPassing clouds.5 mph87%30.09 "HgN/A
10:50 pm34 °FChilly.3 mph87%30.09 "HgN/A
10:20 pm37 °FChilly.3 mph87%30.09 "HgN/A
9:50 pm39 °FChilly.5 mph81%30.09 "HgN/A
9:20 pm41 °FPassing clouds.3 mph70%30.09 "HgN/A
8:50 pm41 °FPassing clouds.3 mph70%30.09 "HgN/A
8:20 pm43 °FPassing clouds.5 mph71%30.09 "HgN/A
7:20 pm45 °FPassing clouds.9 mph61%30.07 "HgN/A
6:50 pm45 °FScattered showers. Scattered clouds.10 mph61%30.07 "HgN/A
6:20 pm46 °FScattered showers. Scattered clouds.14 mph57%30.07 "HgN/A
5:50 pm46 °FScattered showers. Broken clouds.14 mph62%30.07 "HgN/A
5:20 pm46 °FScattered showers. Broken clouds.14 mph66%30.07 "HgN/A
4:50 pm45 °FScattered showers. Broken clouds.9 mph76%30.07 "HgN/A
4:20 pm43 °FRain showers. Broken clouds.13 mph87%30.07 "HgN/A
3:50 pm48 °FScattered showers. Broken clouds.13 mph62%30.04 "HgN/A
3:20 pm46 °FScattered showers. Broken clouds.15 mph62%30.04 "HgN/A
2:50 pm48 °FScattered showers. Broken clouds.15 mph58%30.04 "HgN/A
2:20 pm46 °FScattered showers. Broken clouds.12 mph66%30.04 "HgN/A
Weather by CustomWeather, © 2017

See weather overviewHow to use our weather pages